Погода в Комсомольском

Россия / Пермский край     57°27′33″N   57°07′41″E
темп.,
°C
ветер,
м/с
пор.,
м/с
влажн.,
%
обл.,
%
осадки,
мм/ч
давл.,
гПа
погр.,
м
26 февраля, пт
пт2623:00−25ю23938 0.0 102920
02:00−27ююв22940 0.0 102819
05:00−28ююв22939 0.0 102819
08:00−28юв239175 0.0 102720
11:00−23юв358854 0.0 1026195
14:00−18ююв358417 0.0 1024398
17:00−16ююв368723 0.0 1023219
20:00−20ююв348777 0.0 102163
27 февраля, сб
сб2723:00−20юв468875 0.0 102090
02:00−21юв489424 0.0 1017137
05:00−21вюв599236 0.0 1015163
08:00−20вюв51089100 0.0 1012238
11:00−18вюв61089100 0.0 1010321
14:00−14вюв71192100 0.1 1008516
17:00−14в71192100 0.4 1008611
20:00−17в71291100 0.3 1009529
28 февраля, вс
вс2823:00−18в61194100 0.4 1009492
02:00−18в6119396 0.1 1008460
05:00−18всв5119594 0.3 1008449
08:00−18всв6119599 0.2 1008460
11:00−17всв6109499 0.4 1009492
14:00−15всв6992100 0.3 1009526
17:00−15всв6992100 0.5 1010528
20:00−17всв5995100 0.3 1012419
1 марта, пн
пн123:00−19всв489594 0.4 1014358
02:00−21св469482 0.0 1015128
05:00−25св349346 0.0 101759
08:00−26св23930 0.0 101922
11:00−21ссв23890 0.0 1019181
14:00−17ссз238626 0.0 1019348
17:00−15зсз239160 0.0 1019191
20:00−19зсз229617 0.0 102020
2 марта, вт
вт223:00−20юз22999 0.0 102020
02:00−21юз349948 0.0 101933
05:00−21ююз359952 0.0 101878
08:00−20ююз4109768 0.0 1016194
11:00−17ююз6129282 0.0 1014366
14:00−13ююз8128899 0.0 1012494
17:00−12юз71394100 0.4 1010550
20:00−13юз61294100 1.3 1010595